Location: Central Coast NSW, Australia
(33.2407°S, 151.4316°E)
Time: 14:36:26
(UTC+10:00)

N. Korean satellite - Pass Details

Date: 30 March 2019
Orbit: 457 x 508 km, 97.2° (Epoch: 21 April)

Event Time Altitude Azimuth Distance (km) Brightness Sun altitude
Rises 19:25:05 0° 179° (S) 2,577 10.3 -7.5°
Reaches altitude 10° 19:27:18 10° 188° (S) 1,678 9.4 -8.0°
Maximum altitude 19:30:36 35° 254° (WSW) 800 8.5 -8.7°
Drops below altitude 10° 19:33:49 10° 321° (NW) 1,630 9.8 -9.3°
Sets 19:35:56 0° 330° (NNW) 2,490 10.6 -9.8°
